Location: Igri�s
(42.2144°N, 0.4320°W)
Time: 17:53:39
(UTC+00:00)

Cosmos 1605 Rocket - Pass Details

Date: 13 August 2020
Orbit: 945 x 1005 km, 82.9° (Epoch: 20 September)

Event Time Altitude Azimuth Distance (km) Brightness Sun altitude
Exits shadow 20:39:15 11° 174° (S) 2,628 5.9 -16.1°
Maximum altitude 20:45:09 67° 94° (E) 1,027 3.9 -17.0°
Drops below altitude 10° 20:51:11 10° 13° (NNE) 2,675 6.6 -17.8°
Sets 20:53:42 0° 11° (N) 3,624 7.4 -18.2°
